{"data":{"norad_id":40890,"intl_designator":"2015-045B","name":"GSAT0206 (GALILEO 10)","alt_names":[],"object_type":"PAYLOAD","status":"ACTIVE","operator":null,"country":"ESA","launch_date":"2015-09-11","launch_site_code":"FRGUI","launch_vehicle":null,"mission":null,"orbit_class":"UNKNOWN","rcs_meters":8.8826,"size_class":null,"mass_kg":null,"dimensions":null,"purposes":["earth_obs","nav"],"wikipedia_slug":null,"has_3d_model":false,"image_url":null,"decayed_at":null,"tle_current":{"epoch":"2026-05-24T09:46:33.752640Z","epoch_age_seconds":122376,"freshness":"FRESH","line1":"1 40890U 15045B   26144.40733510 -.00000013  00000+0  00000+0 0  9999","line2":"2 40890  54.9514 222.2612 0001727  22.9304 337.1304  1.70474019 66630","mean_motion":1.70474019,"eccentricity":0.0001727,"inclination_deg":54.9514,"raan_deg":222.2612,"arg_perigee_deg":22.9304,"mean_anomaly_deg":337.1304,"bstar":0,"rev_number":6663,"period_min":844.70349701792,"perigee_km":23217.068883289,"apogee_km":23227.292833078,"semimajor_km":29600.317858184,"source":"CELESTRAK","updated_at":"2026-05-25T13:38:24.054724Z"}}}